Regional Weather Roundup
Issued by NWS

Home | Current Version | Previous Version | Graphics & Text | Print | Product List | Glossary On
Versions: 1 2 3 4 5 6 7 8 9 10 11 12 13 14 15 16 17 18 19 20 21 22 23 24 25 26 27 28 29 30 31 32 33 34 35 36 37 38 39 40 41 42 43 44 45 46 47 48 49 50
000
ASUS43 KDMX 032007
RWRIA

WEATHER ROUNDUP FOR IOWA
NATIONAL WEATHER SERVICE DES MOINES IA
300 PM CDT FRI JUL 03 2015

NOTE: "FAIR" INDICATES FEW OR NO CLOUDS BELOW 12,000 FEET WITH NO
SIGNIFICANT WEATHER AND/OR OBSTRUCTIONS TO VISIBILITY.

* - THESE STATIONS ARE NOT NWS STATIONS...THUS NOT UNDER NWS
QUALITY CONTROL.  THEY ALSO DO NOT REPORT WEATHER SUCH
AS PRECIPITATION OR FOG.

IAZ001>003-012>014-020>022-031>034-043>046-032100-
   NORTHWEST IOWA

CITY           SKY/WX    TMP DP  RH WIND       PRES   REMARKS
CARROLL *      SUNNY     75  54  46 S8        29.99F
CHEROKEE *     SUNNY     75  55  50 SW5       30.00S
DENISON *      SUNNY     73  54  49 N5        29.98F
LE MARS *      SUNNY     75  61  60 VRB3      30.00F
ORANGE CITY *  SUNNY     73  59  60 SW5       30.00F
SHELDON *      SUNNY     75  66  73 VRB5      29.99F
SIOUX CITY     SUNNY     77  56  48 CALM      29.99F
SPENCER        SUNNY     77  53  43 VRB5      29.99F
STORM LAKE *   SUNNY     73  48  40 SW5       30.01S
$$

IAZ055>058-069>071-079>083-090>094-032100-
   SOUTHWEST IOWA

CITY           SKY/WX    TMP DP  RH WIND       PRES   REMARKS
ATLANTIC *     SUNNY     75  52  43 NW5       29.99F
AUDUBON *      SUNNY     75  54  46 CALM      30.01F
CLARINDA *     SUNNY     79  55  44 N7        30.00F
COUNCIL BLFS * SUNNY     75  54  46 CALM      30.00F
CRESTON *      SUNNY     75  54  46 NE8       30.00S
HARLAN  *      SUNNY     75  54  46 CALM      30.03F
LAMONI         SUNNY     78  59  51 NE8       29.99F
RED OAK *      SUNNY     77  52  41 VRB5      29.99F
SHENANDOAH *   SUNNY     77  52  41 NE5       29.99F
$$

IAZ047>049-059>061-072>074-084-032100-
   CENTRAL IOWA

CITY           SKY/WX    TMP DP  RH WIND       PRES   REMARKS
AMES           SUNNY     77  54  44 CALM      29.98F
ANKENY *       SUNNY     75  55  50 NE6       29.97F
CHARITON *     SUNNY     75  55  50 VRB7      29.99S
DES MOINES     SUNNY     78  50  37 CALM      29.97F
GRINNELL*      SUNNY     75  50  41 CALM      29.99F
KNOXVILLE *    SUNNY     75  52  43 VRB5      29.97F
MARSHALLTOWN   SUNNY     75  55  49 VRB3      29.97F
PELLA *        SUNNY     77  59  53 CALM      29.99F
PERRY *          N/A     75  55  50 SE3       29.99F
$$

IAZ004>006-015-016-023>025-035-036-032100-
   NORTH CENTRAL IOWA

CITY           SKY/WX    TMP DP  RH WIND       PRES   REMARKS
ALGONA *       SUNNY     75  52  43 CALM      29.99S
CLARION *      SUNNY     77  55  47 VRB5      29.98F
ESTHERVILLE    SUNNY     76  56  49 VRB5      29.98F
FORT DODGE *   SUNNY     77  54  44 SW5       30.00R
MASON CITY     SUNNY     76  57  51 VRB5      29.99F
FOREST CITY *  SUNNY     73  54  49 SW3       29.98F
IOWA FALLS *     N/A     75  55  50 NW3       29.99F
$$

IAZ007>011-017>019-026>030-037>042-050>054-066-032100-
   NORTHEAST IOWA

CITY           SKY/WX    TMP DP  RH WIND       PRES   REMARKS
CEDAR RAPIDS   SUNNY     75  55  49 S3        29.96F
CHARLES CITY * MOSUNNY   75  57  53 CALM      29.98F
CLINTON *      PTSUNNY   75  57  53 S3        29.99F
DECORAH *        N/A    N/A N/A N/A MISG        N/A
DUBUQUE        SUNNY     74  50  42 VRB3      29.98F
MONTICELLO *   SUNNY     75  70  83 CALM      29.97F
OELWEIN *      SUNNY     73  54  49 W5        29.99S
WATERLOO       SUNNY     76  53  44 E6        29.97F
$$

IAZ064-065-067-068-078-032100-
   EAST CENTRAL IOWA

CITY           SKY/WX    TMP DP  RH WIND       PRES   REMARKS
DAVENPORT      SUNNY     76  57  51 VRB3      29.96F
IOWA CITY      SUNNY     77  58  51 CALM      29.97F
MT. PLEASANT * SUNNY     79  54  41 NE3       29.96F
MUSCATINE *    SUNNY     77  57  50 NE5       29.96F
QUAD CITIES    SUNNY     77  56  48 S3        29.95F
$$

IAZ062-063-075>077-085>089-095>099-032100-
   SOUTHEAST IOWA

CITY           SKY/WX    TMP DP  RH WIND       PRES   REMARKS
BURLINGTON     MOSUNNY   77  61  57 NE7       29.95F
FAIRFIELD *    SUNNY     75  57  53 N3        29.97F
FORT MADISON * SUNNY     75  63  64 NE7       29.96F
KEOKUK *       SUNNY     77  61  57 CALM      29.95F
OSKALOOSA *      N/A     75  57  53 CALM      29.98F
CENTERVILLE *  SUNNY     73  57  56 NE6       29.99F
OTTUMWA        SUNNY     76  58  53 NE6       29.96F
WASHINGTON *   SUNNY     77  61  57 NE6       29.98F
$$

ABBREVIATIONS USED IN REMARKS
   TC - TEMPERATURES IN CELSIUS
  WCI - WIND CHILL INDEX
   HX - HEAT INDEX
  VSB - VISIBILITY
$$



USA.gov is the U.S. government's official web portal to all federal, state and local government web resources and services.